Le nostre stazioni meteo in Italia

Pubblicità
Il mio iltempo24.it
Kielder Castle, Gran Bretagna (99186): Temperatura & dewpoint: 14.06.2019 23:00:00 - 20.06.2019 23:00:00 (BST)Kielder Castle, Gran Bretagna (99186): Temperatura -20cm & Temperatura -100cm: 14.06.2019 23:00:00 - 20.06.2019 23:00:00 (BST)Kielder Castle, Gran Bretagna (99186): precipitazioni: 14.06.2019 23:00:00 - 20.06.2019 23:00:00 (BST)
Data & Tempo tt [°C] td [°C] tt -20cm [°C] tt -100cm [°C] rr [mm]
20.06.2019 23:00:00 - - - - -
20.06.2019 22:00:00 8,9 6,7 - - 0,0
20.06.2019 21:00:00 10,1 7,8 - - 0,0
20.06.2019 20:00:00 10,0 8,6 - - 0,6
20.06.2019 19:00:00 11,5 8,0 - - 0,0
20.06.2019 18:00:00 11,9 8,0 - - 0,0
20.06.2019 17:00:00 12,3 7,4 - - 0,2
20.06.2019 16:00:00 12,5 8,3 - - 1,0
20.06.2019 15:00:00 13,3 8,1 - - 0,0
20.06.2019 14:00:00 12,9 9,4 - - 0,4
20.06.2019 13:00:00 10,7 8,2 - - 0,6
20.06.2019 12:00:00 12,8 5,8 - - 0,0
20.06.2019 11:00:00 12,9 5,7 - - 0,0
20.06.2019 10:00:00 12,7 6,7 14,9 12,0 0,0
20.06.2019 09:00:00 11,4 6,0 - - 0,0
20.06.2019 08:00:00 10,8 7,6 - - 0,0
20.06.2019 07:00:00 9,4 7,5 - - 0,0
20.06.2019 06:00:00 9,4 8,3 - - 0,0
20.06.2019 05:00:00 10,1 9,2 - - 1,0
20.06.2019 04:00:00 10,6 8,6 - - 0,0
20.06.2019 03:00:00 10,7 8,7 - - 0,0
20.06.2019 02:00:00 10,5 8,6 - - 0,0
20.06.2019 01:00:00 10,5 8,9 - - 0,0
20.06.2019 00:00:00 9,8 8,6 - - 0,0
19.06.2019 23:00:00 10,3 8,2 - - 0,0
19.06.2019 22:00:00 10,9 8,2 - - 0,0
19.06.2019 21:00:00 12,2 7,6 - - 0,0
19.06.2019 20:00:00 14,2 8,0 - - 0,0
19.06.2019 19:00:00 14,7 7,6 - - 0,0
19.06.2019 18:00:00 16,5 7,1 - - 0,0
19.06.2019 17:00:00 17,5 5,1 - - 0,0
19.06.2019 16:00:00 17,6 6,2 - - 0,0
19.06.2019 15:00:00 18,3 7,1 - - 0,0
19.06.2019 14:00:00 17,4 6,1 - - 0,0
19.06.2019 13:00:00 17,7 9,4 - - 0,0
19.06.2019 12:00:00 16,6 8,7 - - 0,0
19.06.2019 11:00:00 15,2 9,5 - - 0,0
19.06.2019 10:00:00 13,1 9,4 14,7 12,0 0,0
19.06.2019 09:00:00 11,5 9,5 - - 0,0
19.06.2019 08:00:00 10,0 8,5 - - 0,0
19.06.2019 07:00:00 8,5 7,1 - - 0,0
19.06.2019 06:00:00 7,9 6,6 - - 0,0
19.06.2019 05:00:00 7,6 6,3 - - 0,0
19.06.2019 04:00:00 7,4 5,9 - - 0,0
19.06.2019 03:00:00 7,3 5,6 - - 0,0
19.06.2019 02:00:00 6,9 5,5 - - 0,0
19.06.2019 01:00:00 7,1 5,8 - - 0,0
19.06.2019 00:00:00 7,9 6,1 - - 0,0
18.06.2019 23:00:00 9,4 6,4 - - 0,0
18.06.2019 22:00:00 11,6 7,3 - - 0,0
18.06.2019 21:00:00 13,1 6,1 - - 0,0
18.06.2019 20:00:00 14,4 6,1 - - 0,0
18.06.2019 19:00:00 14,9 5,6 - - 0,0
18.06.2019 18:00:00 15,4 5,6 - - 0,0
18.06.2019 17:00:00 15,4 5,3 - - 0,0
18.06.2019 16:00:00 15,7 4,8 - - 0,0
18.06.2019 15:00:00 16,7 5,0 - - 0,0
18.06.2019 14:00:00 16,2 6,3 - - 0,0
18.06.2019 13:00:00 15,7 5,8 - - 0,0
18.06.2019 12:00:00 15,5 8,3 - - 0,0
18.06.2019 11:00:00 13,4 7,9 - - 0,0
18.06.2019 10:00:00 13,6 7,9 13,9 11,7 0,0
18.06.2019 09:00:00 12,9 9,0 - - 0,0
18.06.2019 08:00:00 12,2 9,3 - - 0,0
18.06.2019 07:00:00 12,1 9,7 - - 0,0
18.06.2019 06:00:00 11,2 9,6 - - 0,0
18.06.2019 05:00:00 10,9 9,4 - - 0,0
18.06.2019 04:00:00 11,0 9,3 - - 0,0
18.06.2019 03:00:00 11,1 8,9 - - 0,0
18.06.2019 02:00:00 11,2 8,8 - - 0,0
18.06.2019 01:00:00 11,3 8,9 - - 0,0
18.06.2019 00:00:00 11,6 9,3 - - 0,0
17.06.2019 23:00:00 11,7 9,1 - - 0,0
17.06.2019 22:00:00 12,2 8,8 - - 0,0
17.06.2019 21:00:00 12,5 8,4 - - 0,0
17.06.2019 20:00:00 14,1 8,3 - - 0,0
17.06.2019 19:00:00 14,8 8,3 - - 0,0
17.06.2019 18:00:00 15,7 8,4 - - 0,0
17.06.2019 17:00:00 15,4 7,8 - - 0,0
17.06.2019 16:00:00 15,4 7,8 - - 0,0
17.06.2019 15:00:00 15,1 7,5 - - 0,0
17.06.2019 14:00:00 16,1 7,8 - - 0,0
17.06.2019 13:00:00 14,9 7,7 - - 0,0
17.06.2019 12:00:00 16,2 9,3 - - 0,0
17.06.2019 11:00:00 13,9 8,3 - - 0,0
17.06.2019 10:00:00 13,9 8,8 13,2 11,7 0,0
17.06.2019 09:00:00 12,2 8,9 - - 0,0
17.06.2019 08:00:00 11,4 9,1 - - 0,0
17.06.2019 07:00:00 10,8 9,1 - - 0,0
17.06.2019 06:00:00 10,7 9,2 - - 0,0
17.06.2019 05:00:00 10,6 9,1 - - 0,0
17.06.2019 04:00:00 10,9 9,7 - - 0,0
17.06.2019 03:00:00 10,8 10,0 - - 0,0
17.06.2019 02:00:00 10,8 9,8 - - 0,0
17.06.2019 01:00:00 11,4 10,7 - - 0,0
17.06.2019 00:00:00 11,1 10,8 - - 2,8
16.06.2019 23:00:00 10,5 9,9 - - 0,6
16.06.2019 22:00:00 10,3 9,3 - - 1,2
16.06.2019 21:00:00 11,3 9,2 - - 0,2
16.06.2019 20:00:00 12,0 8,9 - - 0,0
16.06.2019 19:00:00 12,2 9,6 - - 0,0
16.06.2019 18:00:00 12,4 8,9 - - 0,2
16.06.2019 17:00:00 12,6 8,2 - - 0,0
16.06.2019 16:00:00 14,6 7,0 - - 0,0
16.06.2019 15:00:00 14,4 7,6 - - 0,0
16.06.2019 14:00:00 13,0 7,3 - - 0,0
16.06.2019 13:00:00 12,3 9,0 - - 0,0
16.06.2019 12:00:00 11,4 6,6 - - 0,0
16.06.2019 11:00:00 13,4 6,4 - - 0,0
16.06.2019 10:00:00 12,4 7,3 12,7 11,7 0,0
16.06.2019 09:00:00 10,8 6,8 - - 0,0
16.06.2019 08:00:00 9,4 9,2 - - 0,0
16.06.2019 07:00:00 5,4 5,4 - - 0,2
16.06.2019 06:00:00 2,1 2,1 - - 0,0
16.06.2019 05:00:00 1,3 1,1 - - 0,0
16.06.2019 04:00:00 1,8 1,6 - - 0,0
16.06.2019 03:00:00 2,2 1,9 - - 0,0
16.06.2019 02:00:00 3,2 3,0 - - 0,0
16.06.2019 01:00:00 3,9 3,6 - - 0,0
16.06.2019 00:00:00 5,1 4,7 - - 0,0
15.06.2019 23:00:00 6,7 6,0 - - 0,0
15.06.2019 22:00:00 8,5 7,2 - - 0,0
15.06.2019 21:00:00 10,9 9,2 - - 0,0
15.06.2019 20:00:00 11,6 10,2 - - 0,0
15.06.2019 19:00:00 11,5 10,4 - - 0,0
15.06.2019 18:00:00 11,8 9,6 - - 0,2
15.06.2019 17:00:00 11,8 10,5 - - 0,8
15.06.2019 16:00:00 13,6 9,6 - - 0,0
15.06.2019 15:00:00 14,1 8,8 - - 0,0
15.06.2019 14:00:00 12,2 10,2 - - 0,0
15.06.2019 13:00:00 12,7 9,3 - - 0,0
15.06.2019 12:00:00 13,2 10,4 - - 0,0
15.06.2019 11:00:00 12,2 10,3 - - 1,0
15.06.2019 10:00:00 12,5 8,5 12,9 11,7 0,0
15.06.2019 09:00:00 13,0 8,7 - - 0,0
15.06.2019 08:00:00 12,2 9,0 - - 0,0
15.06.2019 07:00:00 9,6 9,4 - - 0,0
15.06.2019 06:00:00 7,8 7,6 - - 0,0
15.06.2019 05:00:00 8,0 7,7 - - 0,0
15.06.2019 04:00:00 8,2 7,7 - - 0,0
15.06.2019 03:00:00 8,8 8,5 - - 0,0
15.06.2019 02:00:00 8,2 7,8 - - 0,0
15.06.2019 01:00:00 8,2 7,7 - - 0,0
15.06.2019 00:00:00 7,8 6,9 - - 0,0
14.06.2019 23:00:00 8,7 7,3 - - 0,0

tt = Temperatura
td = dewpoint
tt -20cm = Temperatura -20cm
tt -100cm = Temperatura -100cm
rr = precipitazioni

Stazioni seguenti

WeatherPro
AMSI
MeteoEarth